TimeEDT,TemperatureF,Dew PointF,Humidity,Sea Level PressureIn,VisibilityMPH,Wind Direction,Wind SpeedMPH,Gust SpeedMPH,PrecipitationIn,Events,Conditions,WindDirDegrees,DateUTC
12:56 AM,46.9,44.1,90,29.98,10.0,SSE,4.6,-,N/A,,Clear,150,2013-04-10 04:56:00
1:56 AM,46.9,43.0,86,29.94,10.0,SSE,5.8,-,N/A,,Clear,160,2013-04-10 05:56:00
2:56 AM,46.9,43.0,86,29.94,10.0,SSE,4.6,-,N/A,,Scattered Clouds,150,2013-04-10 06:56:00
3:56 AM,48.0,43.0,83,29.95,10.0,NNE,6.9,-,N/A,,Overcast,30,2013-04-10 07:56:00
4:56 AM,46.0,44.1,93,29.99,4.0,NE,3.5,-,0.05,Rain,Rain,50,2013-04-10 08:56:00
5:56 AM,46.0,44.1,93,29.88,10.0,SE,8.1,-,0.08,,Mostly Cloudy,140,2013-04-10 09:56:00
6:56 AM,46.9,44.1,90,29.88,10.0,Variable,4.6,-,N/A,,Clear,0,2013-04-10 10:56:00
7:56 AM,48.9,45.0,86,29.90,10.0,ENE,5.8,-,N/A,,Clear,60,2013-04-10 11:56:00
8:56 AM,54.0,46.0,75,29.92,10.0,NE,5.8,-,N/A,,Clear,50,2013-04-10 12:56:00
9:56 AM,55.0,46.9,74,29.92,10.0,North,5.8,-,N/A,,Scattered Clouds,360,2013-04-10 13:56:00
10:12 AM,55.4,46.4,72,29.92,10.0,North,8.1,-,N/A,,Mostly Cloudy,360,2013-04-10 14:12:00
10:56 AM,55.9,46.9,72,29.93,10.0,Variable,4.6,-,N/A,,Mostly Cloudy,0,2013-04-10 14:56:00
11:10 AM,57.2,46.4,67,29.92,10.0,North,5.8,-,N/A,,Scattered Clouds,10,2013-04-10 15:10:00
11:56 AM,54.0,45.0,72,29.94,10.0,North,11.5,-,N/A,,Partly Cloudy,350,2013-04-10 15:56:00
12:56 PM,53.1,45.0,74,29.95,10.0,North,13.8,20.7,N/A,,Clear,10,2013-04-10 16:56:00
1:56 PM,54.0,45.0,72,29.96,10.0,North,13.8,-,N/A,,Clear,360,2013-04-10 17:56:00
2:56 PM,55.0,45.0,69,29.95,10.0,NNW,10.4,-,N/A,,Clear,330,2013-04-10 18:56:00
3:56 PM,57.0,45.0,64,29.92,10.0,NNW,5.8,-,N/A,,Clear,340,2013-04-10 19:56:00
4:56 PM,54.0,45.0,72,29.89,10.0,SSE,6.9,-,N/A,,Clear,150,2013-04-10 20:56:00
5:56 PM,50.0,43.0,77,29.92,10.0,ESE,8.1,-,N/A,,Scattered Clouds,120,2013-04-10 21:56:00
6:56 PM,48.9,43.0,80,29.93,10.0,ESE,5.8,-,N/A,,Overcast,120,2013-04-10 22:56:00
7:56 PM,46.0,43.0,89,29.90,10.0,SSE,6.9,-,N/A,,Partly Cloudy,160,2013-04-10 23:56:00
8:56 PM,48.0,42.1,80,29.90,10.0,SSE,5.8,-,N/A,,Scattered Clouds,160,2013-04-11 00:56:00
9:42 PM,48.2,42.8,82,29.99,1.8,West,9.2,19.6,0.11,Rain,Heavy Rain,280,2013-04-11 01:42:00
9:56 PM,46.9,45.0,93,29.92,3.0,SSE,5.8,-,0.18,Rain,Rain,160,2013-04-11 01:56:00
10:56 PM,46.9,45.0,93,29.86,10.0,SE,4.6,-,0.04,,Scattered Clouds,140,2013-04-11 02:56:00
11:21 PM,46.4,44.6,93,29.86,10.0,Calm,Calm,-,N/A,,Mostly Cloudy,0,2013-04-11 03:21:00
11:33 PM,46.4,46.4,100,29.87,10.0,Calm,Calm,-,N/A,,Overcast,0,2013-04-11 03:33:00
11:56 PM,46.9,45.0,93,29.88,6.0,Calm,Calm,-,0.01,Rain,Light Rain,0,2013-04-11 03:56:00